Location: Unspecified
(47.5840°N, 122.3000°W)
Time: 15:31:59
(UTC+00:00)

USA 59 Rocket - Pass Details

Date: 15 March 2026
Orbit: 368 x 1667 km, 63.3° (Epoch: 15 April)

Event Time Altitude Azimuth Distance (km) Brightness Sun altitude
Exits shadow 12:22:51 13° 338° (NNW) 1,356 1.8 -20.5°
Maximum altitude 12:25:31 37° 45° (NE) 774 1.1 -20.1°
Drops below altitude 10° 12:29:26 10° 114° (ESE) 1,938 3.2 -19.5°
Sets 12:32:12 0° 122° (ESE) 3,056 4.2 -19.1°
